Home > Weather > Tabatinga > Past weeks

Flag for Brazil Past Weather in Tabatinga, Amazonas, Brazil — Yesterday and Last 2 Weeks

Now
90 °F

Partly sunny.


Feels Like: 100 °F
Forecast: 74 / 88 °F
Wind: 3 mph from West

Location: Leticia / Vasquez Cobo

Current Time: Jul 26, 2016 at 2:52:28 PM

Latest Report: Jul 26, 2016 at 2:00 PM


Visibility: N/A

Pressure: 29.79 "Hg

Humidity: 63%

Dew Point: 75 °F

Location of TabatingaLocation

Past Weather in Tabatinga — Graph

°F

Tabatinga Temperature Yesterday

Maximum temperature yesterday: 88 °F (at 1:00 PM)
Minimum temperature yesterday: 73 °F (at 1:00 AM)
Average temperature yesterday: 79 °F

High & Low Weather Summary for the Past Weeks

 TemperatureHumidityPressure
High91 °F (Jul 26, 1:00 PM)100% (Jul 11, 9:00 PM)30.02 "Hg (Jul 11, 9:00 PM)
Low73 °F (Jul 12, 4:00 AM)55% (Jul 15, 2:00 PM)29.79 "Hg (Jul 15, 4:00 PM)
Average79 °F88%29.90 "Hg
* Reported Jul 11 1:00 PM — Jul 26 1:00 PM, Tabatinga, Weather by CustomWeather, © 2016

Note: Actual official high and low records may vary slightly from our data, if they occured in-between our weather recording intervals... More about our weather records

Advertising

Tabatinga Weather History for the Previous 24 Hours

Scroll right to see more
 ConditionsComfort  
Time TempWeatherWind HumidityBarometerVisibility
1:00 PM
Tue, Jul 26
91 °FPartly sunny.3 mph63%29.86 "HgN/A
12:00 PM90 °FPartly sunny.2 mph63%29.90 "HgN/A
11:00 AM88 °FPartly sunny.7 mph66%29.92 "HgN/A
10:00 AM84 °FPassing clouds.2 mph79%29.94 "HgN/A
9:00 AM82 °FPassing clouds.2 mph84%29.95 "HgN/A
8:00 AM79 °FPassing clouds.No wind89%29.94 "HgN/A
7:00 AM75 °FPartly sunny.No wind94%29.90 "HgN/A
6:00 AM73 °FBroken clouds.No wind94%29.88 "HgN/A
5:00 AM73 °FClear.No wind100%29.85 "Hg10 mi
4:00 AM75 °FClear.No wind94%29.84 "Hg10 mi
3:00 AM75 °FClear.No wind94%29.83 "Hg10 mi
2:00 AM75 °FClear.No wind94%29.84 "Hg10 mi
1:00 AM75 °FClear.No wind94%29.85 "Hg10 mi
12:00 AM75 °FClear.No wind94%29.87 "Hg10 mi
11:00 PM
Mon, Jul 25
75 °FClear.No wind100%29.88 "Hg10 mi
10:00 PM75 °FClear.No wind100%29.89 "Hg10 mi
9:00 PM77 °FClear.No wind94%29.89 "Hg10 mi
8:00 PM79 °FClear.No wind89%29.88 "Hg10 mi
7:00 PM79 °FPartly cloudy.No wind89%29.85 "HgN/A
6:00 PM79 °FPartly cloudy.3 mph89%29.82 "HgN/A
5:00 PM82 °FScattered showers. Scattered clouds.No wind84%29.81 "HgN/A
4:00 PM82 °FScattered clouds.No wind84%29.81 "HgN/A
3:00 PM79 °FScattered clouds.No wind94%29.83 "HgN/A
2:00 PM84 °FRain. Partly sunny.8 mph79%29.86 "Hg3 mi
Weather by CustomWeather, © 2016

See weather overviewHow to use our weather pages